User: anonymous   Login
Location: Beuerbach
(48.1459°N, 10.9174°E)
Time: 16:51:45
(UTC+00:00)
Language:

Cosmos 841 Rocket - Orbit

View from above orbital plane
View from above orbital plane
View from above satellite
View from above satellite

Ground track
Ground track

The orbit data is extracted from the following two-line orbital elements,

1 09023U 76069B   24199.90690182  .00000737  00000-0  23982-3 0  9996
2 09023  74.0440 359.2782 0018116 246.2697 113.6558 14.40445443516952
Epoch (UTC): 17 July 2024 21:45:56
Eccentricity: 0.0018116
inclination: 74.0440°
perigee height: 744 km
apogee height: 770 km
right ascension of ascending node: 359.2782°
argument of perigee: 246.2697°
revolutions per day: 14.40445443
mean anomaly at epoch: 113.6558°
orbit number at epoch: 51695

The dashed part of the orbit path shows where the satellite is in the earth's shadow,  

DLR